| time (UTC) | temp F | wind direction | speed knots | gust knots | rain 1hr in | rain 24hr in | rain mn in | humidity % | barometer mb |
| 20260505032832 | 67 | 301 | 0.0 | 0.0 | 0.00 | 0.00 | 0.00 | 67 | 1009.4 |
| 20260505032328 | 68 | 317 | 0.9 | 0.9 | 0.00 | 0.00 | 0.00 | 66 | 1009.5 |
| 20260505031825 | 68 | 236 | 2.6 | 4.3 | 0.00 | 0.00 | 0.00 | 66 | 1009.5 |
| 20260505031321 | 69 | 254 | 1.7 | 1.7 | 0.00 | 0.00 | 0.00 | 64 | 1009.3 |
| 20260505030819 | 69 | 260 | 4.3 | 5.2 | 0.00 | 0.00 | 0.00 | 63 | 1009.2 |
| 20260505030315 | 70 | 269 | 2.6 | 2.6 | 0.00 | 0.00 | 0.00 | 61 | 1009.2 |
| 20260505025810 | 71 | 252 | 4.3 | 5.2 | 0.00 | 0.00 | 0.00 | 59 | 1009.2 |
| 20260505025308 | 71 | 266 | 0.0 | 0.9 | 0.00 | 0.00 | 0.00 | 58 | 1009.0 |
| 20260505024807 | 72 | 299 | 1.7 | 2.6 | 0.00 | 0.00 | 0.00 | 58 | 1009.2 |
| 20260505024304 | 72 | 294 | 2.6 | 2.6 | 0.00 | 0.00 | 0.00 | 57 | 1009.0 |
| 20260505023801 | 73 | 292 | 2.6 | 4.3 | 0.00 | 0.00 | 0.00 | 56 | 1009.0 |
| 20260505023258 | 73 | 280 | 1.7 | 2.6 | 0.00 | 0.00 | 0.00 | 55 | 1008.9 |
| 20260505022755 | 74 | 287 | 4.3 | 6.1 | 0.00 | 0.00 | 0.00 | 55 | 1009.0 |
| 20260505022252 | 75 | 291 | 6.1 | 7.8 | 0.00 | 0.00 | 0.00 | 55 | 1008.9 |
| 20260505021749 | 75 | 306 | 1.7 | 1.7 | 0.00 | 0.00 | 0.00 | 54 | 1009.0 |
| 20260505021246 | 76 | 295 | 1.7 | 2.6 | 0.00 | 0.00 | 0.00 | 53 | 1009.0 |
| 20260505020741 | 77 | 279 | 3.5 | 6.1 | 0.00 | 0.00 | 0.00 | 52 | 1008.9 |
| 20260505020237 | 77 | 255 | 1.7 | 2.6 | 0.00 | 0.00 | 0.00 | 51 | 1008.8 |
| 20260505015734 | 78 | 254 | 0.9 | 1.7 | 0.00 | 0.00 | 0.00 | 50 | 1008.7 |
| 20260505015231 | 77 | 256 | 1.7 | 2.6 | 0.00 | 0.00 | 0.00 | 51 | 1008.8 |
| 20260505014728 | 77 | 173 | 2.6 | 2.6 | 0.00 | 0.00 | 0.00 | 51 | 1008.8 |
| 20260505014226 | 77 | 255 | 1.7 | 2.6 | 0.00 | 0.00 | 0.00 | 50 | 1009.0 |
| 20260505013722 | 78 | 273 | 1.7 | 1.7 | 0.00 | 0.00 | 0.00 | 49 | 1009.0 |
| 20260505013219 | 79 | 267 | 0.0 | 0.9 | 0.00 | 0.00 | 0.00 | 48 | 1008.9 |
| 20260505012718 | 78 | 290 | 1.7 | 1.7 | 0.00 | 0.00 | 0.00 | 49 | 1009.1 |
| 20260505012215 | 78 | 278 | 0.0 | 0.9 | 0.00 | 0.00 | 0.00 | 49 | 1009.1 |
| 20260505011710 | 78 | 286 | 1.7 | 1.7 | 0.00 | 0.00 | 0.00 | 49 | 1008.9 |
| 20260505011208 | 78 | 276 | 0.0 | 0.9 | 0.00 | 0.00 | 0.00 | 48 | 1009.0 |
| 20260505010703 | 79 | 293 | 0.0 | 0.9 | 0.00 | 0.00 | 0.00 | 48 | 1009.0 |
| 20260505010200 | 79 | 217 | 3.5 | 4.3 | 0.00 | 0.00 | 0.00 | 47 | 1009.0 |
| 20260505005656 | 80 | 195 | 2.6 | 4.3 | 0.00 | 0.00 | 0.00 | 44 | 1008.9 |
| 20260505005153 | 79 | 269 | 0.9 | 0.9 | 0.00 | 0.00 | 0.00 | 45 | 1008.8 |
| 20260505004650 | 79 | 165 | 2.6 | 4.3 | 0.00 | 0.00 | 0.00 | 44 | 1009.1 |
| 20260505004146 | 80 | 193 | 3.5 | 4.3 | 0.00 | 0.00 | 0.00 | 44 | 1009.1 |
| 20260505003644 | 79 | 281 | 2.6 | 2.6 | 0.00 | 0.00 | 0.00 | 43 | 1009.0 |
| 20260505003142 | 80 | 252 | 5.2 | 6.1 | 0.00 | 0.00 | 0.00 | 42 | 1008.9 |
| 20260505002638 | 79 | 243 | 2.6 | 2.6 | 0.00 | 0.00 | 0.00 | 44 | 1009.1 |
| 20260505002136 | 80 | 251 | 3.5 | 5.2 | 0.00 | 0.00 | 0.00 | 43 | 1009.2 |
| 20260505001632 | 80 | 293 | 0.9 | 0.9 | 0.00 | 0.00 | 0.00 | 43 | 1009.0 |
| 20260505001130 | 80 | 306 | 1.7 | 1.7 | 0.00 | 0.00 | 0.00 | 43 | 1009.2 |
| 20260505000627 | 80 | 249 | 5.2 | 7.0 | 0.00 | 0.00 | 0.00 | 43 | 1009.3 |
| 20260505000125 | 80 | 225 | 3.5 | 4.3 | 0.00 | 0.00 | 0.00 | 42 | 1009.0 |
| 20260504235621 | 79 | 258 | 3.5 | 5.2 | 0.00 | 0.00 | 0.00 | 43 | 1009.2 |
| 20260504235117 | 81 | 237 | 4.3 | 5.2 | 0.00 | 0.00 | 0.00 | 40 | 1009.1 |
| 20260504234614 | 80 | 275 | 4.3 | 5.2 | 0.00 | 0.00 | 0.00 | 42 | 1009.1 |
| 20260504234112 | 80 | 301 | 1.7 | 2.6 | 0.00 | 0.00 | 0.00 | 40 | 1009.3 |
| 20260504233607 | 80 | 186 | 4.3 | 6.1 | 0.00 | 0.00 | 0.00 | 40 | 1009.3 |
| 20260504233104 | 80 | 208 | 4.3 | 6.1 | 0.00 | 0.00 | 0.00 | 40 | 1009.3 |
| 20260504232601 | 80 | 278 | 0.9 | 0.9 | 0.00 | 0.00 | 0.00 | 39 | 1009.4 |
| 20260504232059 | 80 | 204 | 4.3 | 6.1 | 0.00 | 0.00 | 0.00 | 39 | 1009.2 |
| 20260504231555 | 79 | 205 | 3.5 | 5.2 | 0.00 | 0.00 | 0.00 | 40 | 1009.3 |
| 20260504231051 | 80 | 289 | 4.3 | 6.1 | 0.00 | 0.00 | 0.00 | 38 | 1009.3 |
| 20260504230547 | 79 | 244 | 2.6 | 4.3 | 0.00 | 0.00 | 0.00 | 40 | 1009.2 |
| 20260504230047 | 80 | 208 | 2.6 | 2.6 | 0.00 | 0.00 | 0.00 | 39 | 1009.3 |
| 20260504225543 | 80 | 212 | 2.6 | 2.6 | 0.00 | 0.00 | 0.00 | 38 | 1009.6 |
| 20260504225040 | 80 | 182 | 5.2 | 6.1 | 0.00 | 0.00 | 0.00 | 39 | 1009.4 |
| 20260504224537 | 79 | 205 | 5.2 | 7.0 | 0.00 | 0.00 | 0.00 | 40 | 1009.6 |
| 20260504224034 | 80 | 207 | 3.5 | 4.3 | 0.00 | 0.00 | 0.00 | 40 | 1009.5 |
| 20260504223531 | 80 | 246 | 2.6 | 2.6 | 0.00 | 0.00 | 0.00 | 40 | 1009.7 |
| 20260504223027 | 81 | 251 | 1.7 | 2.6 | 0.00 | 0.00 | 0.00 | 38 | 1009.8 |
| 20260504222523 | 80 | 236 | 4.3 | 6.1 | 0.00 | 0.00 | 0.00 | 37 | 1009.9 |
| 20260504222021 | 79 | 254 | 2.6 | 4.3 | 0.00 | 0.00 | 0.00 | 41 | 1009.9 |
| 20260504221518 | 79 | 296 | 4.3 | 6.1 | 0.00 | 0.00 | 0.00 | 37 | 1009.9 |
| 20260504221015 | 78 | 256 | 1.7 | 2.6 | 0.00 | 0.00 | 0.00 | 38 | 1010.0 |
| 20260504220512 | 77 | 258 | 4.3 | 6.1 | 0.00 | 0.00 | 0.00 | 39 | 1010.0 |
| 20260504220009 | 78 | 282 | 2.6 | 2.6 | 0.00 | 0.00 | 0.00 | 36 | 1010.0 |
| 20260504215505 | 78 | 254 | 3.5 | 5.2 | 0.00 | 0.00 | 0.00 | 35 | 1010.2 |
| 20260504215003 | 78 | 235 | 5.2 | 7.0 | 0.00 | 0.00 | 0.00 | 40 | 1010.1 |
| 20260504214458 | 77 | 181 | 2.6 | 2.6 | 0.00 | 0.00 | 0.00 | 43 | 1010.2 |
| 20260504213955 | 77 | 229 | 4.3 | 6.1 | 0.00 | 0.00 | 0.00 | 44 | 1010.1 |
| 20260504213451 | 77 | 236 | 6.1 | 8.7 | 0.00 | 0.00 | 0.00 | 47 | 1010.2 |
| 20260504212949 | 77 | 251 | 5.2 | 6.1 | 0.00 | 0.00 | 0.00 | 47 | 1010.2 |
| 20260504212444 | 77 | 275 | 2.6 | 4.3 | 0.00 | 0.00 | 0.00 | 49 | 1010.2 |
| 20260504211942 | 78 | 227 | 1.7 | 2.6 | 0.00 | 0.00 | 0.00 | 47 | 1010.3 |
| 20260504211438 | 77 | 206 | 4.3 | 6.1 | 0.00 | 0.00 | 0.00 | 48 | 1010.4 |
| 20260504210936 | 77 | 269 | 0.0 | 0.0 | 0.00 | 0.00 | 0.00 | 49 | 1010.4 |
| 20260504210432 | 76 | 251 | 2.6 | 2.6 | 0.00 | 0.00 | 0.00 | 50 | 1010.4 |
| 20260504205929 | 77 | 241 | 4.3 | 5.2 | 0.00 | 0.00 | 0.00 | 50 | 1010.7 |
| 20260504205427 | 77 | 249 | 5.2 | 6.1 | 0.00 | 0.00 | 0.00 | 49 | 1010.5 |
| 20260504204925 | 76 | 190 | 2.6 | 4.3 | 0.00 | 0.00 | 0.00 | 49 | 1010.6 |
| 20260504204423 | 76 | 246 | 3.5 | 5.2 | 0.00 | 0.00 | 0.00 | 48 | 1010.5 |
| 20260504203922 | 77 | 250 | 3.5 | 5.2 | 0.00 | 0.00 | 0.00 | 49 | 1010.4 |
| 20260504203419 | 76 | 253 | 4.3 | 5.2 | 0.00 | 0.00 | 0.00 | 49 | 1010.3 |
| 20260504202915 | 76 | 233 | 4.3 | 6.1 | 0.00 | 0.00 | 0.00 | 48 | 1010.4 |
| 20260504202412 | 76 | 199 | 3.5 | 4.3 | 0.00 | 0.00 | 0.00 | 47 | 1010.5 |
| 20260504201909 | 75 | 207 | 2.6 | 4.3 | 0.00 | 0.00 | 0.00 | 49 | 1010.6 |
| 20260504201406 | 77 | 243 | 2.6 | 5.2 | 0.00 | 0.00 | 0.00 | 48 | 1010.6 |
| 20260504200903 | 75 | 279 | 6.1 | 7.0 | 0.00 | 0.00 | 0.00 | 49 | 1010.4 |
| 20260504200400 | 74 | 244 | 4.3 | 7.0 | 0.00 | 0.00 | 0.00 | 50 | 1010.6 |
| 20260504195856 | 74 | 224 | 2.6 | 4.3 | 0.00 | 0.00 | 0.00 | 48 | 1010.7 |
| 20260504195352 | 73 | 208 | 4.3 | 6.1 | 0.00 | 0.00 | 0.00 | 53 | 1010.6 |
| 20260504194849 | 73 | 249 | 7.0 | 7.8 | 0.00 | 0.00 | 0.00 | 53 | 1010.5 |
| 20260504194345 | 73 | 254 | 6.1 | 7.0 | 0.00 | 0.00 | 0.00 | 53 | 1010.7 |
| 20260504193841 | 73 | 264 | 2.6 | 4.3 | 0.00 | 0.00 | 0.00 | 54 | 1010.3 |
| 20260504193338 | 74 | 209 | 3.5 | 6.1 | 0.00 | 0.00 | 0.00 | 51 | 1010.5 |
| 20260504192837 | 73 | 246 | 3.5 | 5.2 | 0.00 | 0.00 | 0.00 | 53 | 1010.7 |
| 20260504192335 | 73 | 249 | 2.6 | 4.3 | 0.00 | 0.00 | 0.00 | 50 | 1010.6 |
| 20260504191833 | 73 | 260 | 5.2 | 7.8 | 0.00 | 0.00 | 0.00 | 49 | 1010.5 |
| 20260504191330 | 72 | 238 | 6.1 | 7.0 | 0.00 | 0.00 | 0.00 | 50 | 1010.6 |
| 20260504190825 | 73 | 255 | 3.5 | 6.1 | 0.00 | 0.00 | 0.00 | 49 | 1010.9 |
| 20260504190322 | 75 | 246 | 3.5 | 4.3 | 0.00 | 0.00 | 0.00 | 47 | 1010.7 |
| 20260504185819 | 77 | 256 | 4.3 | 5.2 | 0.00 | 0.00 | 0.00 | 42 | 1010.6 |
| 20260504185316 | 75 | 326 | 1.7 | 2.6 | 0.00 | 0.00 | 0.00 | 41 | 1010.6 |
| 20260504184812 | 75 | 208 | 3.5 | 4.3 | 0.00 | 0.00 | 0.00 | 42 | 1010.8 |
| 20260504184308 | 75 | 245 | 1.7 | 2.6 | 0.00 | 0.00 | 0.00 | 41 | 1010.6 |
| 20260504183803 | 73 | 273 | 3.5 | 4.3 | 0.00 | 0.00 | 0.00 | 44 | 1010.7 |
| 20260504183301 | 74 | 193 | 2.6 | 4.3 | 0.00 | 0.00 | 0.00 | 42 | 1010.8 |
| 20260504182759 | 73 | 169 | 2.6 | 4.3 | 0.00 | 0.00 | 0.00 | 44 | 1010.9 |
| 20260504182255 | 71 | 281 | 0.9 | 1.7 | 0.00 | 0.00 | 0.00 | 47 | 1010.9 |
| 20260504181753 | 73 | 295 | 4.3 | 5.2 | 0.00 | 0.00 | 0.00 | 48 | 1010.9 |
| 20260504181250 | 71 | 257 | 2.6 | 2.6 | 0.00 | 0.00 | 0.00 | 50 | 1010.7 |
| 20260504180749 | 70 | 241 | 2.6 | 4.3 | 0.00 | 0.00 | 0.00 | 50 | 1011.0 |
| 20260504180247 | 73 | 280 | 5.2 | 6.1 | 0.00 | 0.00 | 0.00 | 49 | 1010.7 |
| 20260504175745 | 73 | 217 | 1.7 | 1.7 | 0.00 | 0.00 | 0.00 | 45 | 1010.8 |
| 20260504175241 | 73 | 197 | 3.5 | 4.3 | 0.00 | 0.00 | 0.00 | 46 | 1010.7 |
| 20260504174739 | 73 | 194 | 3.5 | 4.3 | 0.00 | 0.00 | 0.00 | 47 | 1010.7 |
| 20260504174237 | 72 | 279 | 1.7 | 2.6 | 0.00 | 0.00 | 0.00 | 47 | 1010.7 |
| 20260504173733 | 72 | 285 | 1.7 | 2.6 | 0.00 | 0.00 | 0.00 | 47 | 1010.8 |
| 20260504173230 | 70 | 253 | 2.6 | 2.6 | 0.00 | 0.00 | 0.00 | 51 | 1010.7 |
| 20260504172727 | 70 | 253 | 3.5 | 4.3 | 0.00 | 0.00 | 0.00 | 52 | 1010.8 |
| 20260504172223 | 71 | 244 | 4.3 | 5.2 | 0.00 | 0.00 | 0.00 | 50 | 1011.0 |
| 20260504171720 | 72 | 240 | 4.3 | 4.3 | 0.00 | 0.00 | 0.00 | 50 | 1010.8 |
| 20260504171217 | 71 | 293 | 0.0 | 0.0 | 0.00 | 0.00 | 0.00 | 50 | 1010.6 |
| 20260504170714 | 71 | 256 | 2.6 | 4.3 | 0.00 | 0.00 | 0.00 | 49 | 1010.8 |
| 20260504170211 | 71 | 227 | 0.9 | 1.7 | 0.00 | 0.00 | 0.00 | 50 | 1010.8 |
| 20260504160129 | 67 | 39 | 0.9 | 1.7 | 0.00 | 0.00 | 0.00 | 64 | 1010.7 |
| 20260504151057 | 62 | 267 | 0.0 | 0.0 | 0.00 | 0.00 | 0.00 | 73 | 1010.2 |
| 20260504150554 | 62 | 257 | 0.9 | 0.9 | 0.00 | 0.00 | 0.00 | 74 | 1010.1 |
| 20260504141020 | 59 | 22 | 0.9 | 0.9 | 0.00 | 0.00 | 0.00 | 82 | 1010.0 |
| 20260504140517 | 58 | 34 | 0.0 | 0.0 | 0.00 | 0.00 | 0.00 | 82 | 1009.9 |
| 20260504130441 | 56 | 354 | 0.0 | 0.0 | 0.00 | 0.00 | 0.00 | 83 | 1009.4 |
| 20260504110323 | 57 | 349 | 0.0 | 0.0 | 0.00 | 0.00 | 0.00 | 76 | 1009.2 |
| 20260504100240 | 57 | 341 | 0.0 | 0.0 | 0.00 | 0.00 | 0.00 | 73 | 1009.3 |
| 20260504081633 | 65 | 23 | 0.0 | 0.0 | 0.00 | 0.00 | 0.00 | 56 | 1009.1 |
| 20260504081129 | 65 | 26 | 0.0 | 0.0 | 0.00 | 0.00 | 0.00 | 56 | 1009.2 |
| 20260504080626 | 65 | 6 | 0.0 | 0.0 | 0.00 | 0.00 | 0.00 | 56 | 1009.4 |
| 20260504080123 | 65 | 21 | 0.0 | 0.0 | 0.00 | 0.00 | 0.00 | 57 | 1009.3 |
| 20260504050439 | 70 | 51 | 0.0 | 0.0 | 0.00 | 0.00 | 0.00 | 46 | 1009.2 |
| 20260504045936 | 70 | 282 | 0.0 | 0.0 | 0.00 | 0.00 | 0.00 | 46 | 1009.0 |
| 20260504045432 | 70 | 327 | 0.0 | 0.0 | 0.00 | 0.00 | 0.00 | 44 | 1009.3 |
| 20260504044928 | 70 | 342 | 0.0 | 0.0 | 0.00 | 0.00 | 0.00 | 44 | 1009.0 |
| 20260504044426 | 70 | 336 | 0.0 | 0.0 | 0.00 | 0.00 | 0.00 | 43 | 1009.3 |
| 20260504043923 | 70 | 333 | 0.0 | 0.0 | 0.00 | 0.00 | 0.00 | 44 | 1008.9 |
| 20260504043420 | 69 | 327 | 0.0 | 0.0 | 0.00 | 0.00 | 0.00 | 43 | 1009.1 |
| 20260504042917 | 69 | 322 | 0.0 | 0.0 | 0.00 | 0.00 | 0.00 | 43 | 1009.2 |
| 20260504042414 | 69 | 328 | 0.0 | 0.0 | 0.00 | 0.00 | 0.00 | 43 | 1009.0 |
| 20260504041910 | 70 | 333 | 0.0 | 0.0 | 0.00 | 0.00 | 0.00 | 42 | 1009.1 |
| 20260504041406 | 70 | 335 | 0.0 | 0.0 | 0.00 | 0.00 | 0.00 | 41 | 1009.2 |
| 20260504040903 | 71 | 4 | 0.0 | 0.0 | 0.00 | 0.00 | 0.00 | 40 | 1008.8 |
| 20260504040400 | 71 | 0 | 0.0 | 0.9 | 0.00 | 0.00 | 0.00 | 40 | 1008.9 |
| 20260504035856 | 71 | 342 | 0.9 | 0.9 | 0.00 | 0.00 | 0.00 | 40 | 1008.8 |
| 20260504035354 | 71 | 349 | 1.7 | 1.7 | 0.00 | 0.00 | 0.00 | 39 | 1009.0 |
| 20260504034850 | 72 | 319 | 0.9 | 1.7 | 0.00 | 0.00 | 0.00 | 39 | 1008.7 |
| 20260504034348 | 72 | 318 | 0.9 | 0.9 | 0.00 | 0.00 | 0.00 | 39 | 1008.9 |
| 20260504033844 | 72 | 324 | 0.9 | 0.9 | 0.00 | 0.00 | 0.00 | 39 | 1008.9 |
| 20260504033343 | 72 | 339 | 1.7 | 1.7 | 0.00 | 0.00 | 0.00 | 38 | 1008.9 |